User: anonymous   Login
Location: Raven Hill Discovery Center
(45.1336°N, 85.0553°W)
Time: 16:29:12
(UTC-04:00)
Language:

Cosmos 1470 - Orbit

View from above orbital plane
View from above orbital plane
View from above satellite
View from above satellite

Ground track
Ground track

The orbit data is extracted from the following two-line orbital elements,

1 14147U 83061A   17088.55412833 +.00001578 +00000-0 +93566-4 0  9994
2 14147 082.4814 117.1735 0016276 166.7524 193.4136 15.10568494592796
Epoch (UTC): 29 March 2017 13:17:56
Eccentricity: 0.0016276
inclination: 82.4814°
perigee height: 523 km
apogee height: 546 km
right ascension of ascending node: 117.1735°
argument of perigee: 166.7524°
revolutions per day: 15.10568494
mean anomaly at epoch: 193.4136°
orbit number at epoch: 59279

The dashed part of the orbit path shows where the satellite is in the earth's shadow,  

DLR